#timestamp,LO_Frequency,Hit,StdDev 
1622137175.8,286047035.2,P
1622137195.6,286047037.0,P
1622137215.4,286047036.5,P
1622137235.3,286047041.1,Y
1622137255.1,286047003.3,P
1622137275.9,286047003.3,N
1622137295.7,286047004.8,N
1622137315.5,286047007.2,N
1622137335.4,286047007.1,N
1622137355.2,286047006.2,N
1622137375.0,286047008.3,N
1622137375.9,286047008.3,N
1622137395.8,286047008.9,N
1622137415.6,286047008.3,N
1622137435.5,286047010.6,N
1622137455.3,286047009.6,N
1622137475.1,286047012.4,N
1622137495.9,286047013.9,N
1622137515.7,286047011.3,N
1622137535.5,286047011.5,N
1622137555.4,286047010.9,N
1622137575.2,286047013.0,N
1622137595.1,286047014.3,N
1622137596.0,286047014.3,N
1622137615.8,286047014.6,N
1622137635.6,286047016.8,N
1622137655.5,286047014.3,N
1622137675.3,286047018.6,N
1622137695.1,286047017.9,N
1622137715.9,286047019.8,Y
1622137735.7,286047006.1,P
1622137755.6,286047008.8,P
1622137775.4,286047010.4,P
1622137795.2,286047010.2,Y
1622137815.1,286047002.1,P
1622137816.0,286047002.1,N
1622137835.8,286047003.1,N
1622137855.7,286047004.0,N
1622137875.5,286047004.4,N
1622137895.3,286047002.1,N
1622137915.2,286047001.6,N
1622137935.0,286047003.7,N
1622137935.9,286047003.7,N
1622137955.8,286047002.9,N
1622137975.6,286047003.4,N
1622137995.4,286047004.6,N
1622138015.3,286047007.4,Y
1622138035.1,286047004.1,P
1622138055.8,286047003.6,P
1622138075.7,286047003.0,P
1622138095.5,286047003.8,Y
1622138115.4,286047002.4,P
1622138135.2,286047002.7,P
1622138155.0,286047001.9,P
1622138155.9,286047001.9,Y
1622138175.8,286047001.0,P
1622138195.6,286047000.3,N
1622138215.5,286047002.5,N
1622138235.3,286047003.8,Y
1622138255.1,286047002.2,P
1622138275.9,286047001.5,P
1622138295.7,286047003.5,P
1622138315.6,286047003.1,Y
1622138335.4,286047001.4,P
1622138355.2,286047005.9,P
1622138375.1,286047006.8,P
1622138376.0,286047006.8,N
1622138395.8,286047010.7,Y
